Flag for France Weather past 2 weeks in Reims, France

Now
54 °F

More clouds than sun.


Feels Like: 51 °F
Forecast: 35 / 57 °F
Wind: 9 mph from West

Location: Chalons-Vatry

Current Time: Apr 28, 2015 at 5:12:20 PM

Latest Report: Apr 28, 2015 at 4:30 PM


Visibility: N/A

Pressure: 30.12 "Hg

Humidity: 58%

Dew point: 39 °F

Location of ReimsLocation

Historic Weather in Reims — Graph

°F

Reims temperature yesterday

Maximum temperature yesterday: 54 °F (at 12:00 AM)
Minimum temperature yesterday: 45 °F (at 9:30 PM)
Average temperature yesterday: 50 °F

Past Weeks' High & Low Weather Summary

 TemperatureHumidityPressure
High77 °F (Apr 15, 2:30 PM)100% (Apr 25, 4:00 AM)30.45 "Hg (Apr 25, 4:00 AM)
Low34 °F (Apr 28, 6:30 AM)28% (Apr 20, 2:30 PM)29.59 "Hg (Apr 27, 3:30 AM)
Average55 °F67%30.05 "Hg
* Reported Apr 13 4:00 PM — Apr 28 4:00 PM, Reims, Weather by CustomWeather, © 2015

Note: Actual official high and low records may vary slightly from our data, if they occured in-between our weather recording intervals... More about our weather records

Advertising

Reims weather history for previous 24 hours

 ConditionsComfort  
Time TempWeatherWind HumidityBarometerVisibility
4:00 PM
Tue, Apr 28
52 °FCloudy.8 mph62%30.12 "HgN/A
3:30 PM52 °FPartly sunny.12 mph58%30.12 "HgN/A
3:00 PM54 °FPartly sunny.13 mph58%30.12 "HgN/A
2:30 PM54 °FBroken clouds.9 mph58%30.12 "HgN/A
2:00 PM52 °FBroken clouds.14 mph58%30.12 "HgN/A
1:30 PM52 °FPartly sunny.10 mph58%30.12 "HgN/A
1:00 PM54 °FPassing clouds.14 mph58%30.12 "HgN/A
12:30 PM50 °FBroken clouds.14 mph67%30.09 "HgN/A
12:00 PM52 °FBroken clouds.12 mph67%30.09 "HgN/A
11:30 AM52 °FPartly sunny.9 mph62%30.09 "HgN/A
11:00 AM50 °FBroken clouds.8 mph67%30.07 "HgN/A
10:30 AM48 °FScattered clouds.10 mph76%30.07 "HgN/A
10:00 AM46 °FPassing clouds.8 mph82%30.07 "HgN/A
9:30 AM45 °FClear.7 mph87%30.07 "HgN/A
9:00 AM43 °FClear.7 mph87%30.04 "HgN/A
8:30 AM41 °FClear.7 mph87%30.04 "HgN/A
8:00 AM37 °FClear.3 mph93%30.04 "HgN/A
7:30 AM36 °FClear.8 mph93%30.01 "HgN/A
7:00 AM34 °FClear.5 mph93%30.01 "HgN/A
6:30 AM34 °FClear.6 mph93%29.98 "HgN/A
6:00 AM36 °FClear.6 mph87%29.98 "HgN/A
5:30 AM36 °FClear.10 mph87%29.98 "HgN/A
5:00 AM36 °FClear.9 mph87%29.95 "HgN/A
4:30 AM37 °FClear.8 mph87%29.95 "HgN/A
4:00 AM39 °FClear.9 mph81%29.95 "HgN/A
3:30 AM39 °FClear.8 mph87%29.92 "HgN/A
3:00 AM41 °FClear.10 mph81%29.92 "HgN/A
2:30 AM43 °FClear.10 mph81%29.92 "HgN/A
2:00 AM45 °FClear.8 mph76%29.89 "HgN/A
1:30 AM45 °FClear.10 mph76%29.89 "HgN/A
1:00 AM45 °FClear.12 mph76%29.89 "HgN/A
12:30 AM43 °FQuite cool.10 mph87%29.89 "HgN/A
12:00 AM43 °FClear.8 mph81%29.86 "HgN/A
11:30 PM
Mon, Apr 27
45 °FClear.10 mph81%29.86 "HgN/A
11:00 PM46 °FClear.10 mph82%29.83 "HgN/A
10:30 PM46 °FOvercast.8 mph82%29.83 "HgN/A
10:00 PM46 °FMostly cloudy.7 mph82%29.83 "HgN/A
9:30 PM45 °FClear.6 mph87%29.83 "HgN/A
9:00 PM46 °FClear.9 mph82%29.80 "HgN/A
8:30 PM48 °FClear.12 mph76%29.80 "HgN/A
8:00 PM48 °FScattered clouds.15 mph76%29.77 "HgN/A
7:30 PM50 °FMostly cloudy.15 mph71%29.77 "HgN/A
7:00 PM50 °FMostly cloudy.17 mph76%29.77 "HgN/A
6:30 PM50 °FMore clouds than sun.18 mph71%29.77 "HgN/A
6:00 PM50 °FCloudy.20 mph76%29.74 "HgN/A
5:30 PM48 °FMostly cloudy.22 mph82%29.74 "HgN/A
5:00 PM48 °FOvercast.23 mph82%29.74 "HgN/A
Weather by CustomWeather, © 2015

See weather overviewHow to use our weather pages